CES745 NZAA-SAEZ

Flight info

Callsign CES745
Flight time N/A
Altitude 30000
Route NZAA/05R 3659S17454E GS/N0485F310 40S175W 40S170W 41S160W 42S150W 43S140W/N0476F330 44S131W 44S130W 44S120W 44S110W/N0473F350 44S100W 44S090W 44S080W MON UM658 BAR UZ109 ISMIL UT655 ASADA
Aircraft B77W/H-SDE1E2E3FGHIJ2J3J4J5M1RWXY/LB1D1

Departure

Time N/A
Airport Auckland International Airport (NZAA)

Arrival

Time 2026-05-04 19:04
Airport Ezeiza International Airport - Ministro Pistarini (SAEZ)
Time Latitude Longitude Altitude Speed Heading
2026-05-04 12:22 -43.27254 -138.10037 33039 ft 565 kts 99°
2026-05-04 12:22 -43.28730 -137.99454 33044 ft 565 kts 98°
2026-05-04 12:23 -43.30172 -137.88866 33036 ft 564 kts 98°
2026-05-04 12:23 -43.31548 -137.78266 33040 ft 564 kts 98°
2026-05-04 12:24 -43.32942 -137.67661 33033 ft 565 kts 98°
2026-05-04 12:24 -43.34311 -137.56989 33041 ft 568 kts 98°
2026-05-04 12:25 -43.35706 -137.46326 33038 ft 567 kts 98°
2026-05-04 12:25 -43.37075 -137.35639 33028 ft 568 kts 98°
2026-05-04 12:26 -43.38443 -137.24917 33047 ft 569 kts 98°
2026-05-04 12:26 -43.39804 -137.14228 33030 ft 568 kts 98°
2026-05-04 12:27 -43.41147 -137.03532 33042 ft 567 kts 98°
2026-05-04 12:27 -43.42485 -136.92812 33038 ft 569 kts 97°
2026-05-04 12:28 -43.43793 -136.82051 33034 ft 572 kts 97°
2026-05-04 12:28 -43.45115 -136.71251 33023 ft 573 kts 97°
2026-05-04 12:29 -43.46418 -136.60481 33032 ft 569 kts 97°
2026-05-04 12:29 -43.47719 -136.49820 33042 ft 568 kts 97°
2026-05-04 12:30 -43.48995 -136.38974 33040 ft 571 kts 97°
2026-05-04 12:30 -43.50286 -136.28247 33025 ft 572 kts 98°
2026-05-04 12:31 -43.51567 -136.17419 33016 ft 573 kts 97°
2026-05-04 12:31 -43.52788 -136.06560 33025 ft 574 kts 97°
2026-05-04 12:32 -43.54686 -135.90276 33027 ft 572 kts 97°
2026-05-04 12:33 -43.55946 -135.79439 33030 ft 571 kts 97°
2026-05-04 12:33 -43.57177 -135.68614 33020 ft 572 kts 97°
2026-05-04 12:34 -43.58369 -135.57760 33021 ft 573 kts 96°
2026-05-04 12:34 -43.59578 -135.46867 33021 ft 575 kts 96°
2026-05-04 12:35 -43.60843 -135.35957 33017 ft 575 kts 96°
2026-05-04 12:35 -43.61982 -135.25028 33019 ft 575 kts 96°
2026-05-04 12:36 -43.63144 -135.14124 33019 ft 574 kts 96°
2026-05-04 12:36 -43.64312 -135.03204 33021 ft 575 kts 96°
2026-05-04 12:37 -43.65490 -134.92262 33026 ft 577 kts 96°
2026-05-04 12:37 -43.66656 -134.81292 33028 ft 578 kts 96°
2026-05-04 12:38 -43.67801 -134.70297 33025 ft 578 kts 96°
2026-05-04 12:38 -43.68933 -134.59301 33020 ft 578 kts 96°
2026-05-04 12:39 -43.70056 -134.48291 33020 ft 578 kts 96°
2026-05-04 12:39 -43.71160 -134.37366 33025 ft 578 kts 96°
2026-05-04 12:40 -43.72261 -134.26377 33016 ft 577 kts 96°
2026-05-04 12:40 -43.73352 -134.15371 33017 ft 577 kts 96°
2026-05-04 12:41 -43.74431 -134.04382 33021 ft 577 kts 95°
2026-05-04 12:41 -43.75500 -133.93374 33018 ft 577 kts 95°
2026-05-04 12:42 -43.76548 -133.82350 33031 ft 578 kts 95°
2026-05-04 12:42 -43.77595 -133.71316 33017 ft 579 kts 95°
2026-05-04 12:43 -43.78648 -133.60270 33019 ft 579 kts 95°
2026-05-04 12:43 -43.79684 -133.49225 33018 ft 579 kts 95°
2026-05-04 12:44 -43.80701 -133.38179 33012 ft 578 kts 95°
2026-05-04 12:44 -43.81705 -133.27135 33015 ft 578 kts 95°
2026-05-04 12:45 -43.82705 -133.16078 33024 ft 579 kts 95°
2026-05-04 12:45 -43.83693 -133.05020 33013 ft 579 kts 95°
2026-05-04 12:46 -43.84669 -132.93953 33024 ft 579 kts 95°
2026-05-04 12:46 -43.85634 -132.82861 33024 ft 580 kts 95°
2026-05-04 12:47 -43.86590 -132.71760 33013 ft 580 kts 95°
2026-05-04 12:47 -43.87538 -132.60659 33019 ft 580 kts 95°
2026-05-04 12:48 -43.88472 -132.49561 33025 ft 580 kts 95°
2026-05-04 12:48 -43.89401 -132.38461 33013 ft 581 kts 94°
2026-05-04 12:49 -43.90312 -132.27314 33016 ft 583 kts 94°
2026-05-04 12:49 -43.91212 -132.16204 33035 ft 578 kts 94°
2026-05-04 12:50 -43.92116 -132.05106 33029 ft 580 kts 94°
2026-05-04 12:50 -43.92986 -131.93991 33017 ft 579 kts 94°
2026-05-04 12:51 -43.93847 -131.82961 33034 ft 579 kts 94°
2026-05-04 12:51 -43.94714 -131.71843 33028 ft 581 kts 94°
2026-05-04 12:52 -43.95565 -131.60681 33026 ft 582 kts 94°
2026-05-04 12:52 -43.96405 -131.49509 33025 ft 583 kts 94°
2026-05-04 12:53 -43.97240 -131.38313 33015 ft 581 kts 94°
2026-05-04 12:53 -43.98047 -131.27156 33002 ft 581 kts 94°
2026-05-04 12:54 -43.98857 -131.15973 33019 ft 582 kts 94°
2026-05-04 12:54 -43.99665 -131.04786 33024 ft 582 kts 94°
2026-05-04 12:55 -44.00131 -130.93577 33037 ft 580 kts 87°
2026-05-04 12:55 -44.00126 -130.84274 33025 ft 580 kts 86°
2026-05-04 12:56 -44.00088 -130.73078 33025 ft 580 kts 86°
2026-05-04 12:56 -44.00088 -130.61889 33025 ft 580 kts 87°
2026-05-04 12:57 -44.00101 -130.50688 33031 ft 579 kts 87°
2026-05-04 12:57 -44.00100 -130.39507 33015 ft 578 kts 87°
2026-05-04 12:58 -44.00113 -130.28333 33033 ft 579 kts 86°
2026-05-04 12:58 -44.00060 -130.17134 33031 ft 580 kts 86°
2026-05-04 12:59 -44.00022 -130.05932 33028 ft 580 kts 86°
2026-05-04 12:59 -44.00131 -129.94746 33029 ft 579 kts 90°
2026-05-04 13:00 -44.00611 -129.83551 33019 ft 582 kts 92°
2026-05-04 13:00 -44.01156 -129.72361 33036 ft 581 kts 91°
2026-05-04 13:01 -44.01635 -129.61150 33039 ft 582 kts 91°
2026-05-04 13:01 -44.02090 -129.49917 33043 ft 583 kts 91°
2026-05-04 13:02 -44.02503 -129.38702 33020 ft 583 kts 91°
2026-05-04 13:02 -44.02960 -129.27475 33036 ft 582 kts 91°
2026-05-04 13:03 -44.03361 -129.16239 33039 ft 583 kts 91°
2026-05-04 13:03 -44.03759 -129.04973 33040 ft 585 kts 91°
2026-05-04 13:04 -44.04144 -128.93685 33032 ft 584 kts 90°
2026-05-04 13:04 -44.04516 -128.82418 33027 ft 583 kts 91°
2026-05-04 13:05 -44.04905 -128.71182 33029 ft 582 kts 91°
2026-05-04 13:05 -44.05273 -128.60001 33041 ft 582 kts 90°
2026-05-04 13:06 -44.05612 -128.48698 33042 ft 583 kts 90°
2026-05-04 13:06 -44.05938 -128.37508 33041 ft 584 kts 90°
2026-05-04 13:07 -44.06265 -128.26227 33049 ft 584 kts 90°
2026-05-04 13:07 -44.06587 -128.14936 33040 ft 583 kts 90°
2026-05-04 13:08 -44.06893 -128.03674 33033 ft 583 kts 90°
2026-05-04 13:08 -44.07197 -127.92410 33051 ft 582 kts 90°
2026-05-04 13:09 -44.07470 -127.81143 33035 ft 582 kts 89°
2026-05-04 13:09 -44.07711 -127.69875 33042 ft 583 kts 90°
2026-05-04 13:10 -44.07976 -127.58645 33035 ft 582 kts 90°
2026-05-04 13:10 -44.08247 -127.47396 33045 ft 582 kts 90°
2026-05-04 13:11 -44.08496 -127.36124 33047 ft 583 kts 90°
2026-05-04 13:11 -44.08705 -127.24827 33059 ft 585 kts 90°
2026-05-04 13:12 -44.08923 -127.13530 33038 ft 584 kts 90°
2026-05-04 13:12 -44.09135 -127.02251 33047 ft 583 kts 90°
2026-05-04 13:13 -44.09329 -126.90972 33056 ft 583 kts 89°
2026-05-04 13:13 -44.09505 -126.79684 33048 ft 584 kts 89°
2026-05-04 13:14 -44.09697 -126.68376 33037 ft 584 kts 89°
2026-05-04 13:14 -44.09839 -126.57104 33050 ft 581 kts 89°
2026-05-04 13:15 -44.09989 -126.45854 33057 ft 581 kts 89°
2026-05-04 13:15 -44.10120 -126.34679 33038 ft 582 kts 89°
2026-05-04 13:16 -44.10245 -126.23417 33055 ft 584 kts 89°
2026-05-04 13:16 -44.10375 -126.12102 33058 ft 585 kts 90°
2026-05-04 13:17 -44.10485 -126.00762 33063 ft 585 kts 89°
2026-05-04 13:17 -44.10556 -125.89446 33051 ft 584 kts 89°
2026-05-04 13:18 -44.10642 -125.78162 33065 ft 583 kts 89°
2026-05-04 13:18 -44.10729 -125.66908 33052 ft 581 kts 89°
2026-05-04 13:19 -44.10792 -125.55641 33065 ft 582 kts 89°
2026-05-04 13:19 -44.10857 -125.44378 33066 ft 583 kts 88°
2026-05-04 13:20 -44.10873 -125.33079 33065 ft 584 kts 88°
2026-05-04 13:20 -44.10890 -125.21772 33059 ft 585 kts 88°
2026-05-04 13:21 -44.10901 -125.10470 33062 ft 585 kts 88°
2026-05-04 13:21 -44.10904 -124.99155 33056 ft 584 kts 89°
2026-05-04 13:22 -44.10919 -124.87867 33096 ft 582 kts 88°
2026-05-04 13:22 -44.10894 -124.76588 33071 ft 584 kts 88°
2026-05-04 13:23 -44.10859 -124.65275 33071 ft 585 kts 88°
2026-05-04 13:23 -44.10821 -124.53944 33068 ft 586 kts 88°
2026-05-04 13:24 -44.10772 -124.42593 33074 ft 585 kts 88°
2026-05-04 13:24 -44.10706 -124.31286 33072 ft 585 kts 88°
2026-05-04 13:25 -44.10594 -124.14288 33081 ft 586 kts 88°
2026-05-04 13:25 -44.10517 -124.02960 33075 ft 586 kts 88°
2026-05-04 13:26 -44.10399 -123.91709 33068 ft 584 kts 88°
2026-05-04 13:26 -44.10279 -123.80318 33089 ft 585 kts 88°
2026-05-04 13:27 -44.10173 -123.69093 33079 ft 584 kts 88°
2026-05-04 13:27 -44.10036 -123.57779 33077 ft 585 kts 88°
2026-05-04 13:28 -44.09884 -123.46464 33098 ft 585 kts 88°
2026-05-04 13:28 -44.09717 -123.35133 33078 ft 587 kts 88°
2026-05-04 13:29 -44.09562 -123.23771 33077 ft 588 kts 88°
2026-05-04 13:29 -44.09384 -123.12404 33087 ft 588 kts 88°
2026-05-04 13:30 -44.09189 -123.01038 33087 ft 588 kts 87°
2026-05-04 13:30 -44.08984 -122.89680 33088 ft 587 kts 87°
2026-05-04 13:31 -44.08772 -122.78317 33084 ft 587 kts 87°
2026-05-04 13:31 -44.08543 -122.66969 33082 ft 587 kts 87°
2026-05-04 13:32 -44.08314 -122.55609 33110 ft 588 kts 87°
2026-05-04 13:32 -44.08060 -122.44255 33090 ft 588 kts 87°
2026-05-04 13:33 -44.07798 -122.32885 33104 ft 588 kts 87°
2026-05-04 13:33 -44.07529 -122.21522 33103 ft 588 kts 87°
2026-05-04 13:34 -44.07248 -122.10151 33112 ft 588 kts 87°
2026-05-04 13:34 -44.06956 -121.98790 33108 ft 588 kts 86°
2026-05-04 13:35 -44.06494 -121.81754 33097 ft 587 kts 86°
2026-05-04 13:36 -44.06178 -121.70399 33119 ft 589 kts 86°
2026-05-04 13:36 -44.05838 -121.59076 33113 ft 591 kts 86°
2026-05-04 13:37 -44.05489 -121.47679 33099 ft 590 kts 86°
2026-05-04 13:37 -44.05135 -121.36279 33101 ft 590 kts 86°
2026-05-04 13:38 -44.04768 -121.24888 33108 ft 590 kts 86°
2026-05-04 13:38 -44.04393 -121.13496 33115 ft 589 kts 86°
2026-05-04 13:39 -44.04004 -121.02123 33111 ft 589 kts 86°
2026-05-04 13:39 -44.03603 -120.90743 33103 ft 590 kts 86°
2026-05-04 13:40 -44.03191 -120.79347 33122 ft 590 kts 86°
2026-05-04 13:40 -44.02767 -120.67945 33122 ft 591 kts 86°
2026-05-04 13:41 -44.02329 -120.56551 33103 ft 591 kts 86°
2026-05-04 13:41 -44.01883 -120.45173 33122 ft 590 kts 86°
2026-05-04 13:42 -44.01269 -120.30010 33120 ft 592 kts 86°
2026-05-04 13:42 -44.00796 -120.18587 33122 ft 593 kts 86°
2026-05-04 13:43 -44.00312 -120.07160 33131 ft 593 kts 86°
2026-05-04 13:43 -44.00065 -119.95716 33135 ft 593 kts 93°
2026-05-04 13:44 -44.00565 -119.84286 33138 ft 593 kts 95°
2026-05-04 13:44 -44.01125 -119.72856 33135 ft 593 kts 95°
2026-05-04 13:45 -44.01630 -119.61425 33126 ft 593 kts 94°
2026-05-04 13:45 -44.02084 -119.49980 33134 ft 593 kts 94°
2026-05-04 13:46 -44.02521 -119.38532 33147 ft 593 kts 94°
2026-05-04 13:46 -44.02951 -119.27075 33143 ft 594 kts 94°
2026-05-04 13:47 -44.03371 -119.15622 33137 ft 594 kts 94°
2026-05-04 13:47 -44.03783 -119.04148 33141 ft 594 kts 94°
2026-05-04 13:48 -44.04183 -118.92679 33144 ft 594 kts 94°
2026-05-04 13:48 -44.04568 -118.81278 33149 ft 595 kts 94°
2026-05-04 13:49 -44.04946 -118.69789 33146 ft 595 kts 94°
2026-05-04 13:49 -44.05313 -118.58298 33139 ft 595 kts 94°
2026-05-04 13:50 -44.05665 -118.46807 33137 ft 595 kts 94°
2026-05-04 13:50 -44.06009 -118.35297 33161 ft 596 kts 94°
2026-05-04 13:51 -44.06339 -118.23790 33149 ft 597 kts 94°
2026-05-04 13:51 -44.06659 -118.12246 33150 ft 597 kts 94°
2026-05-04 13:52 -44.07117 -117.94934 33153 ft 597 kts 94°
2026-05-04 13:53 -44.07409 -117.83385 33152 ft 598 kts 94°
2026-05-04 13:53 -44.07689 -117.71829 33160 ft 598 kts 94°
2026-05-04 13:54 -44.08089 -117.54461 33158 ft 599 kts 94°
2026-05-04 13:55 -44.08461 -117.37081 33154 ft 600 kts 93°
2026-05-04 13:55 -44.08810 -117.19682 33156 ft 600 kts 93°
2026-05-04 13:56 -44.09025 -117.08084 33156 ft 600 kts 93°
2026-05-04 13:57 -44.09327 -116.90677 33158 ft 600 kts 93°
2026-05-04 13:58 -44.09688 -116.67464 33160 ft 600 kts 93°
2026-05-04 13:58 -44.09931 -116.50140 33158 ft 600 kts 93°
2026-05-04 13:59 -44.10075 -116.38541 33160 ft 600 kts 93°
2026-05-04 14:00 -44.10274 -116.21139 33165 ft 600 kts 93°
2026-05-04 14:00 -44.10445 -116.03738 33168 ft 599 kts 93°
2026-05-04 14:01 -44.10543 -115.92147 33168 ft 599 kts 93°
2026-05-04 14:02 -44.10672 -115.74767 33168 ft 599 kts 93°
2026-05-04 14:02 -44.10739 -115.63189 33170 ft 598 kts 93°
2026-05-04 14:03 -44.10797 -115.51630 33168 ft 597 kts 93°
2026-05-04 14:03 -44.10845 -115.40079 33175 ft 597 kts 92°
2026-05-04 14:04 -44.10888 -115.22769 33166 ft 596 kts 92°
2026-05-04 14:04 -44.10905 -115.11242 33176 ft 595 kts 92°
2026-05-04 14:05 -44.10912 -114.93984 33167 ft 594 kts 92°
2026-05-04 14:06 -44.10902 -114.82491 33173 ft 593 kts 92°
2026-05-04 14:06 -44.10877 -114.71009 33178 ft 593 kts 92°
2026-05-04 14:07 -44.10841 -114.59548 33170 ft 592 kts 92°
2026-05-04 14:07 -44.10796 -114.48099 33173 ft 591 kts 92°
2026-05-04 14:08 -44.10739 -114.36675 33173 ft 590 kts 92°
2026-05-04 14:08 -44.10671 -114.25337 33171 ft 589 kts 92°
2026-05-04 14:09 -44.10547 -114.08254 33170 ft 588 kts 92°
2026-05-04 14:10 -44.10396 -113.91197 33174 ft 587 kts 92°
2026-05-04 14:10 -44.10282 -113.79838 33179 ft 587 kts 92°
2026-05-04 14:11 -44.10159 -113.68488 33177 ft 586 kts 92°
2026-05-04 14:11 -44.09953 -113.51484 33179 ft 586 kts 91°
2026-05-04 14:12 -44.09800 -113.40152 33181 ft 586 kts 91°
2026-05-04 14:13 -44.09551 -113.23186 33181 ft 585 kts 91°
2026-05-04 14:13 -44.09374 -113.11886 33175 ft 584 kts 91°
2026-05-04 14:14 -44.09176 -113.00606 33182 ft 583 kts 91°
2026-05-04 14:14 -44.08874 -112.83712 33184 ft 582 kts 91°
2026-05-04 14:15 -44.08429 -112.61242 33184 ft 581 kts 91°
2026-05-04 14:16 -44.08062 -112.44415 33186 ft 579 kts 91°
2026-05-04 14:17 -44.07678 -112.27649 33182 ft 578 kts 91°
2026-05-04 14:18 -44.07267 -112.10902 33178 ft 577 kts 91°
2026-05-04 14:19 -44.06683 -111.88621 33185 ft 576 kts 90°
2026-05-04 14:19 -44.06374 -111.77504 33191 ft 575 kts 90°
2026-05-04 14:20 -44.06059 -111.66405 33187 ft 574 kts 90°
2026-05-04 14:20 -44.05727 -111.55315 33185 ft 574 kts 90°
2026-05-04 14:21 -44.05217 -111.38714 33201 ft 573 kts 90°
2026-05-04 14:21 -44.04896 -111.28619 33198 ft 573 kts 90°
2026-05-04 14:22 -44.04535 -111.17579 33195 ft 572 kts 90°
2026-05-04 14:22 -44.04160 -111.06542 33197 ft 571 kts 90°
2026-05-04 14:23 -44.03578 -110.90020 33187 ft 570 kts 90°
2026-05-04 14:24 -44.03179 -110.79026 33193 ft 569 kts 90°
2026-05-04 14:24 -44.02769 -110.68045 33187 ft 568 kts 90°
2026-05-04 14:25 -44.02352 -110.57094 33185 ft 567 kts 90°
2026-05-04 14:25 -44.01707 -110.40706 33197 ft 566 kts 89°
2026-05-04 14:26 -44.01264 -110.29792 33196 ft 565 kts 89°
2026-05-04 14:26 -44.00808 -110.18903 33201 ft 564 kts 89°
2026-05-04 14:27 -44.00348 -110.08024 33192 ft 564 kts 89°
2026-05-04 14:27 -44.00035 -109.97174 33195 ft 560 kts 96°
2026-05-04 14:28 -44.00479 -109.86405 33210 ft 558 kts 98°
2026-05-04 14:28 -44.01003 -109.75671 33200 ft 557 kts 98°
2026-05-04 14:29 -44.01915 -109.54270 33200 ft 556 kts 97°
2026-05-04 14:30 -44.02329 -109.43543 33199 ft 555 kts 97°
2026-05-04 14:31 -44.02935 -109.27509 33199 ft 553 kts 96°
2026-05-04 14:32 -44.03712 -109.06180 33198 ft 551 kts 96°
2026-05-04 14:32 -44.04083 -108.95565 33199 ft 550 kts 96°
2026-05-04 14:33 -44.04446 -108.84949 33203 ft 549 kts 96°
2026-05-04 14:33 -44.04797 -108.74359 33203 ft 548 kts 96°
2026-05-04 14:34 -44.05138 -108.63794 33204 ft 547 kts 96°
2026-05-04 14:34 -44.05469 -108.53229 33201 ft 547 kts 96°
2026-05-04 14:35 -44.05789 -108.42675 33202 ft 546 kts 96°
2026-05-04 14:35 -44.06101 -108.32135 33198 ft 545 kts 95°
2026-05-04 14:36 -44.06402 -108.21618 33202 ft 544 kts 95°
2026-05-04 14:36 -44.06691 -108.11110 33205 ft 543 kts 95°
2026-05-04 14:37 -44.06971 -108.00618 33203 ft 542 kts 95°
2026-05-04 14:37 -44.07239 -107.90217 33203 ft 542 kts 95°
2026-05-04 14:38 -44.07499 -107.79762 33203 ft 541 kts 95°
2026-05-04 14:38 -44.07749 -107.69309 33206 ft 540 kts 95°
2026-05-04 14:39 -44.07991 -107.58869 33208 ft 540 kts 95°
2026-05-04 14:39 -44.08221 -107.48450 33205 ft 539 kts 94°
2026-05-04 14:40 -44.08549 -107.32838 33201 ft 538 kts 94°
2026-05-04 14:40 -44.08756 -107.22443 33205 ft 537 kts 94°
2026-05-04 14:41 -44.08953 -107.12059 33208 ft 536 kts 94°
2026-05-04 14:42 -44.09315 -106.91344 33206 ft 535 kts 94°
2026-05-04 14:42 -44.09484 -106.81014 33206 ft 534 kts 94°
2026-05-04 14:43 -44.09643 -106.70683 33212 ft 534 kts 94°
2026-05-04 14:43 -44.09792 -106.60358 33207 ft 533 kts 93°
2026-05-04 14:44 -44.09932 -106.50051 33205 ft 533 kts 93°
2026-05-04 14:44 -44.10062 -106.39748 33204 ft 532 kts 93°
2026-05-04 14:45 -44.10182 -106.29462 33207 ft 531 kts 93°
2026-05-04 14:45 -44.10295 -106.19191 33206 ft 531 kts 93°
2026-05-04 14:46 -44.10396 -106.08992 33205 ft 530 kts 93°
2026-05-04 14:46 -44.10489 -105.98737 33208 ft 530 kts 92°
2026-05-04 14:47 -44.10572 -105.88487 33205 ft 529 kts 92°
2026-05-04 14:47 -44.10647 -105.78247 33204 ft 529 kts 92°
2026-05-04 14:48 -44.10712 -105.68019 33207 ft 529 kts 92°
2026-05-04 14:48 -44.10768 -105.57802 33207 ft 528 kts 92°
2026-05-04 14:49 -44.10815 -105.47581 33204 ft 528 kts 92°
2026-05-04 14:49 -44.10852 -105.37372 33208 ft 527 kts 92°
2026-05-04 14:50 -44.10880 -105.27172 33206 ft 527 kts 92°
2026-05-04 14:50 -44.10901 -105.16978 33203 ft 527 kts 91°
2026-05-04 14:51 -44.10912 -105.06792 33201 ft 526 kts 91°
2026-05-04 14:51 -44.10914 -104.96595 33349 ft 529 kts 91°
2026-05-04 14:52 -44.10911 -104.91539 33675 ft 528 kts 91°
2026-05-04 14:52 -44.10905 -104.86375 34069 ft 527 kts 91°
2026-05-04 14:52 -44.10898 -104.81286 34397 ft 525 kts 91°
2026-05-04 14:52 -44.10888 -104.76275 34643 ft 525 kts 91°
2026-05-04 14:53 -44.10877 -104.71182 34844 ft 527 kts 91°
2026-05-04 14:53 -44.10863 -104.66087 35046 ft 528 kts 91°
2026-05-04 14:53 -44.10830 -104.55849 35190 ft 530 kts 91°
2026-05-04 14:54 -44.10786 -104.45618 35201 ft 527 kts 91°
2026-05-04 14:54 -44.10741 -104.37154 35200 ft 525 kts 91°
2026-05-04 14:55 -44.10681 -104.26996 35204 ft 524 kts 91°
2026-05-04 14:55 -44.10612 -104.16858 35201 ft 524 kts 91°
2026-05-04 14:56 -44.10534 -104.06710 35194 ft 525 kts 91°
2026-05-04 14:56 -44.10448 -103.96554 35193 ft 525 kts 91°
2026-05-04 14:57 -44.10352 -103.86387 35197 ft 526 kts 90°
2026-05-04 14:57 -44.10244 -103.76201 35202 ft 527 kts 90°
2026-05-04 14:58 -44.10131 -103.66013 35192 ft 527 kts 90°
2026-05-04 14:58 -44.10008 -103.55825 35193 ft 527 kts 90°
2026-05-04 14:59 -44.09875 -103.45635 35187 ft 526 kts 90°
2026-05-04 15:00 -44.09660 -103.30381 35188 ft 525 kts 90°
2026-05-04 15:00 -44.09504 -103.20221 35196 ft 525 kts 90°
2026-05-04 15:01 -44.09256 -103.05020 35193 ft 524 kts 90°
2026-05-04 15:01 -44.09079 -102.94893 35187 ft 523 kts 90°
2026-05-04 15:02 -44.08893 -102.84772 35198 ft 523 kts 90°
2026-05-04 15:02 -44.08700 -102.74731 35195 ft 523 kts 90°
2026-05-04 15:03 -44.08497 -102.64626 35189 ft 522 kts 90°
2026-05-04 15:03 -44.08285 -102.54528 35198 ft 522 kts 89°
2026-05-04 15:04 -44.08064 -102.44439 35191 ft 522 kts 89°
2026-05-04 15:04 -44.07837 -102.34404 35196 ft 522 kts 89°
2026-05-04 15:05 -44.07598 -102.24318 35199 ft 522 kts 89°
2026-05-04 15:05 -44.07351 -102.14207 35180 ft 523 kts 89°
2026-05-04 15:06 -44.07094 -102.04111 35184 ft 523 kts 89°
2026-05-04 15:07 -44.06695 -101.89033 35182 ft 522 kts 89°
2026-05-04 15:07 -44.06417 -101.78950 35188 ft 522 kts 89°
2026-05-04 15:08 -44.06129 -101.68865 35183 ft 521 kts 89°
2026-05-04 15:08 -44.05834 -101.58801 35186 ft 521 kts 89°
2026-05-04 15:09 -44.05532 -101.48807 35186 ft 521 kts 89°
2026-05-04 15:09 -44.05219 -101.38754 35182 ft 521 kts 89°
2026-05-04 15:10 -44.04733 -101.23676 35182 ft 520 kts 89°
2026-05-04 15:11 -44.04229 -101.08626 35179 ft 520 kts 88°
2026-05-04 15:11 -44.03883 -100.98650 35180 ft 520 kts 88°
2026-05-04 15:12 -44.03528 -100.88623 35179 ft 520 kts 88°
2026-05-04 15:12 -44.03162 -100.78591 35182 ft 519 kts 88°
2026-05-04 15:13 -44.02790 -100.68570 35172 ft 519 kts 88°
2026-05-04 15:13 -44.02410 -100.58621 35175 ft 519 kts 88°
2026-05-04 15:14 -44.02020 -100.48605 35172 ft 519 kts 88°
2026-05-04 15:14 -44.01620 -100.38586 35174 ft 519 kts 88°
2026-05-04 15:15 -44.01212 -100.28583 35171 ft 519 kts 88°
2026-05-04 15:15 -44.00799 -100.18638 35173 ft 519 kts 88°
2026-05-04 15:16 -44.00158 -100.03626 35171 ft 519 kts 88°
2026-05-04 15:17 -44.00392 -99.88651 35171 ft 517 kts 95°
2026-05-04 15:17 -44.01099 -99.73774 35168 ft 517 kts 95°
2026-05-04 15:18 -44.01528 -99.63803 35164 ft 517 kts 95°
2026-05-04 15:19 -44.02122 -99.48842 35166 ft 517 kts 95°
2026-05-04 15:19 -44.02694 -99.33950 35165 ft 517 kts 94°
2026-05-04 15:20 -44.03068 -99.23966 35161 ft 517 kts 94°
2026-05-04 15:20 -44.03433 -99.13986 35164 ft 517 kts 94°
2026-05-04 15:21 -44.03789 -99.04007 35163 ft 517 kts 94°
2026-05-04 15:22 -44.04306 -98.89102 35157 ft 517 kts 94°
2026-05-04 15:22 -44.04804 -98.74127 35156 ft 517 kts 94°
2026-05-04 15:23 -44.05126 -98.64149 35155 ft 517 kts 94°
2026-05-04 15:23 -44.05438 -98.54234 35149 ft 517 kts 94°
2026-05-04 15:24 -44.06039 -98.34265 35153 ft 517 kts 94°
2026-05-04 15:25 -44.06326 -98.24283 35147 ft 517 kts 94°
2026-05-04 15:26 -44.06738 -98.09379 35143 ft 517 kts 94°
2026-05-04 15:26 -44.07132 -97.94405 35141 ft 516 kts 93°
2026-05-04 15:27 -44.07505 -97.79505 35141 ft 516 kts 93°
2026-05-04 15:28 -44.07861 -97.64542 35135 ft 516 kts 93°
2026-05-04 15:29 -44.08196 -97.49579 35134 ft 516 kts 93°
2026-05-04 15:30 -44.08903 -97.14721 35130 ft 516 kts 92°
2026-05-04 15:31 -44.09174 -96.99745 35128 ft 516 kts 92°
2026-05-04 15:32 -44.09581 -96.74858 35121 ft 517 kts 92°
2026-05-04 15:34 -44.09933 -96.49973 35117 ft 516 kts 92°
2026-05-04 15:34 -44.10119 -96.35004 35113 ft 516 kts 92°
2026-05-04 15:35 -44.10285 -96.20023 35109 ft 516 kts 91°
2026-05-04 15:36 -44.10432 -96.05099 35109 ft 517 kts 91°
2026-05-04 15:36 -44.10520 -95.95103 35107 ft 517 kts 91°
2026-05-04 15:37 -44.10598 -95.85106 35104 ft 517 kts 91°
2026-05-04 15:37 -44.10668 -95.75167 35103 ft 517 kts 91°
2026-05-04 15:38 -44.10728 -95.65163 35098 ft 517 kts 91°
2026-05-04 15:38 -44.10782 -95.54750 35097 ft 517 kts 91°
2026-05-04 15:39 -44.10826 -95.44808 35094 ft 517 kts 91°
2026-05-04 15:40 -44.10875 -95.29802 35095 ft 517 kts 91°
2026-05-04 15:40 -44.10897 -95.19800 35089 ft 517 kts 90°
2026-05-04 15:41 -44.10910 -95.09790 35091 ft 517 kts 90°
2026-05-04 15:41 -44.10915 -94.99847 35088 ft 517 kts 90°
2026-05-04 15:42 -44.10910 -94.89829 35082 ft 517 kts 90°
2026-05-04 15:42 -44.10896 -94.79816 35083 ft 518 kts 90°
2026-05-04 15:43 -44.10874 -94.69805 35078 ft 518 kts 90°
2026-05-04 15:43 -44.10844 -94.59793 35076 ft 518 kts 90°
2026-05-04 15:44 -44.10805 -94.49833 35072 ft 518 kts 90°
2026-05-04 15:44 -44.10756 -94.39822 35072 ft 518 kts 90°
2026-05-04 15:45 -44.10699 -94.29798 35072 ft 518 kts 90°
2026-05-04 15:45 -44.10632 -94.19773 35067 ft 518 kts 90°
2026-05-04 15:46 -44.10560 -94.09825 35067 ft 518 kts 90°
2026-05-04 15:46 -44.10476 -93.99809 35067 ft 518 kts 89°
2026-05-04 15:47 -44.10383 -93.89786 35061 ft 518 kts 89°
2026-05-04 15:47 -44.10283 -93.79770 35056 ft 518 kts 89°
2026-05-04 15:48 -44.10174 -93.69757 35059 ft 518 kts 89°
2026-05-04 15:48 -44.09996 -93.54788 35054 ft 518 kts 89°
2026-05-04 15:49 -44.09863 -93.44785 35052 ft 518 kts 89°
2026-05-04 15:49 -44.09723 -93.34749 35051 ft 518 kts 89°
2026-05-04 15:50 -44.09573 -93.24725 35042 ft 518 kts 89°
2026-05-04 15:50 -44.09417 -93.14767 35043 ft 519 kts 89°
2026-05-04 15:51 -44.09250 -93.04737 35045 ft 519 kts 89°
2026-05-04 15:51 -44.09077 -92.94714 35042 ft 519 kts 89°
2026-05-04 15:52 -44.08893 -92.84688 35038 ft 518 kts 89°
2026-05-04 15:52 -44.08699 -92.74661 35038 ft 518 kts 89°
2026-05-04 15:53 -44.08499 -92.64706 35035 ft 518 kts 89°
2026-05-04 15:53 -44.08289 -92.54695 35031 ft 518 kts 88°
2026-05-04 15:54 -44.08071 -92.44681 35032 ft 518 kts 88°
2026-05-04 15:54 -44.07844 -92.34685 35031 ft 517 kts 88°
2026-05-04 15:55 -44.07608 -92.24746 35028 ft 517 kts 88°
2026-05-04 15:55 -44.07363 -92.14745 35023 ft 517 kts 88°
2026-05-04 15:56 -44.07111 -92.04755 35024 ft 517 kts 88°
2026-05-04 15:56 -44.06849 -91.94754 35022 ft 518 kts 88°
2026-05-04 15:57 -44.06580 -91.84821 35018 ft 518 kts 88°
2026-05-04 15:57 -44.06300 -91.74821 35015 ft 518 kts 88°
2026-05-04 15:58 -44.06012 -91.64824 35013 ft 518 kts 88°
2026-05-04 15:58 -44.05715 -91.54812 35012 ft 518 kts 88°
2026-05-04 15:59 -44.05411 -91.44871 35007 ft 518 kts 88°
2026-05-04 15:59 -44.05096 -91.34864 35009 ft 518 kts 87°
2026-05-04 16:00 -44.04773 -91.24864 35005 ft 518 kts 87°
2026-05-04 16:00 -44.04439 -91.14853 35004 ft 518 kts 87°
2026-05-04 16:01 -44.04098 -91.04841 35000 ft 519 kts 87°
2026-05-04 16:01 -44.03765 -90.95252 35000 ft 519 kts 87°
2026-05-04 16:02 -44.03406 -90.85233 34993 ft 519 kts 87°
2026-05-04 16:03 -44.02853 -90.70224 34995 ft 519 kts 87°
2026-05-04 16:03 -44.02471 -90.60208 34991 ft 519 kts 86°
2026-05-04 16:04 -44.02082 -90.50194 34987 ft 519 kts 86°
2026-05-04 16:04 -44.01485 -90.35248 34995 ft 519 kts 86°
2026-05-04 16:05 -44.01074 -90.25225 34992 ft 519 kts 86°
2026-05-04 16:06 -44.00442 -90.10199 34983 ft 520 kts 86°
2026-05-04 16:07 -44.00317 -89.90197 34991 ft 521 kts 94°
2026-05-04 16:08 -44.01263 -89.70070 34981 ft 523 kts 94°
2026-05-04 16:09 -44.02277 -89.44878 34973 ft 525 kts 93°
2026-05-04 16:10 -44.03045 -89.24543 34967 ft 526 kts 93°
2026-05-04 16:11 -44.03779 -89.04305 34966 ft 526 kts 93°
2026-05-04 16:12 -44.04815 -88.73835 34961 ft 528 kts 92°
2026-05-04 16:13 -44.05463 -88.53415 34955 ft 529 kts 92°
2026-05-04 16:14 -44.06076 -88.32947 34954 ft 531 kts 92°
2026-05-04 16:16 -44.06792 -88.07369 34947 ft 531 kts 92°
2026-05-04 16:17 -44.07453 -87.81723 34940 ft 533 kts 92°
2026-05-04 16:18 -44.07939 -87.61110 34930 ft 534 kts 91°
2026-05-04 16:19 -44.08498 -87.35336 34931 ft 535 kts 91°
2026-05-04 16:20 -44.09000 -87.09441 34922 ft 536 kts 91°
2026-05-04 16:22 -44.09444 -86.83555 34919 ft 537 kts 91°
2026-05-04 16:23 -44.09901 -86.52400 34917 ft 539 kts 91°
2026-05-04 16:25 -44.10275 -86.21068 34915 ft 541 kts 90°
2026-05-04 16:26 -44.10475 -86.00507 34905 ft 528 kts 90°
2026-05-04 16:26 -44.10599 -85.85136 34906 ft 531 kts 90°
2026-05-04 16:28 -44.10760 -85.59422 34900 ft 535 kts 89°
2026-05-04 16:29 -44.10890 -85.23210 34889 ft 535 kts 89°
2026-05-04 16:31 -44.10914 -84.97419 34882 ft 535 kts 89°
2026-05-04 16:32 -44.10865 -84.66363 34880 ft 537 kts 89°
2026-05-04 16:33 -44.10793 -84.47304 34876 ft 539 kts 88°
2026-05-04 16:34 -44.10709 -84.31655 34868 ft 539 kts 88°
2026-05-04 16:35 -44.10481 -84.00348 34863 ft 542 kts 88°
2026-05-04 16:36 -44.10335 -83.84615 34860 ft 542 kts 88°
2026-05-04 16:37 -44.10163 -83.68855 34857 ft 544 kts 88°
2026-05-04 16:38 -44.09905 -83.47833 34856 ft 546 kts 87°
2026-05-04 16:39 -44.09521 -83.21365 34845 ft 548 kts 87°
2026-05-04 16:40 -44.09174 -83.00182 34846 ft 551 kts 86°
2026-05-04 16:41 -44.08676 -82.73457 34842 ft 555 kts 86°
2026-05-04 16:43 -44.08112 -82.46565 34840 ft 560 kts 85°
2026-05-04 16:43 -44.07741 -82.30301 34832 ft 562 kts 85°
2026-05-04 16:45 -44.06926 -81.97694 34829 ft 566 kts 85°
2026-05-04 16:46 -44.06171 -81.70311 34828 ft 571 kts 85°
2026-05-04 16:47 -44.05513 -81.48204 34827 ft 574 kts 84°
2026-05-04 16:48 -44.04810 -81.26014 34828 ft 579 kts 84°
2026-05-04 16:49 -44.04054 -81.03533 34820 ft 585 kts 84°
2026-05-04 16:50 -44.03249 -80.80913 34822 ft 590 kts 84°
2026-05-04 16:51 -44.02609 -80.63781 34816 ft 593 kts 84°
2026-05-04 16:52 -44.01712 -80.40872 34817 ft 594 kts 83°
2026-05-04 16:53 -44.01013 -80.23748 34813 ft 596 kts 83°
2026-05-04 16:54 -43.99337 -80.00924 34816 ft 589 kts 70°
2026-05-04 16:55 -43.93551 -79.80113 34816 ft 578 kts 56°
2026-05-04 16:55 -43.90111 -79.70010 34811 ft 581 kts 56°
2026-05-04 16:56 -43.81609 -79.44573 34813 ft 585 kts 56°
2026-05-04 16:57 -43.76473 -79.29229 34813 ft 586 kts 56°
2026-05-04 16:58 -43.69582 -79.08823 34811 ft 585 kts 55°
2026-05-04 17:00 -43.59215 -78.78412 34814 ft 584 kts 55°
2026-05-04 17:01 -43.50521 -78.53170 34821 ft 585 kts 55°
2026-05-04 17:02 -43.43505 -78.32969 34824 ft 585 kts 55°
2026-05-04 17:03 -43.38211 -78.17820 34821 ft 586 kts 55°
2026-05-04 17:03 -43.32920 -78.02761 34822 ft 586 kts 55°
2026-05-04 17:04 -43.25807 -77.82651 34828 ft 585 kts 55°
2026-05-04 17:05 -43.18681 -77.62657 34826 ft 586 kts 55°
2026-05-04 17:06 -43.13299 -77.47643 34825 ft 585 kts 55°
2026-05-04 17:07 -43.08508 -77.34349 34827 ft 585 kts 54°
2026-05-04 17:07 -43.04285 -77.22684 34829 ft 585 kts 54°
2026-05-04 17:08 -42.98880 -77.07816 34835 ft 585 kts 54°
2026-05-04 17:09 -42.95247 -76.97874 34830 ft 585 kts 54°
2026-05-04 17:09 -42.91608 -76.87950 34835 ft 585 kts 54°
2026-05-04 17:10 -42.82488 -76.63224 34842 ft 586 kts 54°
2026-05-04 17:11 -42.78816 -76.53334 34839 ft 586 kts 54°
2026-05-04 17:12 -42.73308 -76.38559 34840 ft 586 kts 54°
2026-05-04 17:13 -42.64046 -76.13885 34857 ft 586 kts 54°
2026-05-04 17:14 -42.56619 -75.94253 34859 ft 587 kts 54°
2026-05-04 17:15 -42.51008 -75.79513 34851 ft 587 kts 54°
2026-05-04 17:16 -42.43495 -75.59890 34855 ft 587 kts 54°
2026-05-04 17:17 -42.35972 -75.40379 34866 ft 587 kts 54°
2026-05-04 17:18 -42.28397 -75.20857 34872 ft 586 kts 54°
2026-05-04 17:19 -42.20819 -75.01468 34872 ft 586 kts 54°
2026-05-04 17:20 -42.13190 -74.82080 34882 ft 585 kts 54°
2026-05-04 17:20 -42.07449 -74.67570 34884 ft 585 kts 54°
2026-05-04 17:21 -41.99794 -74.48336 34890 ft 585 kts 54°
2026-05-04 17:22 -41.95946 -74.38717 34889 ft 584 kts 54°
2026-05-04 17:23 -41.88262 -74.19601 34889 ft 583 kts 54°
2026-05-04 17:24 -41.82463 -74.05253 34892 ft 583 kts 54°
2026-05-04 17:25 -41.74716 -73.86201 34896 ft 582 kts 54°
2026-05-04 17:26 -41.66976 -73.67283 34894 ft 580 kts 54°
2026-05-04 17:27 -41.57253 -73.43691 34904 ft 579 kts 54°
2026-05-04 17:28 -41.49462 -73.24921 34901 ft 580 kts 54°
2026-05-04 17:29 -41.40714 -72.94858 34919 ft 591 kts 78°
2026-05-04 17:31 -41.37036 -72.67942 34942 ft 592 kts 77°
2026-05-04 17:32 -41.33041 -72.41073 34933 ft 592 kts 76°
2026-05-04 17:33 -41.29663 -72.19543 34900 ft 596 kts 76°
2026-05-04 17:34 -41.26280 -71.98064 34918 ft 597 kts 76°
2026-05-04 17:35 -41.22057 -71.71061 34868 ft 596 kts 76°
2026-05-04 17:36 -41.20433 -71.60302 34852 ft 592 kts 76°
2026-05-04 17:36 -41.18793 -71.49622 34832 ft 588 kts 76°
2026-05-04 17:37 -41.17155 -71.39062 34820 ft 581 kts 76°
2026-05-04 17:37 -41.14787 -71.28870 34818 ft 576 kts 60°
2026-05-04 17:38 -41.10901 -71.19696 34805 ft 564 kts 46°
2026-05-04 17:38 -41.06157 -71.11473 34825 ft 561 kts 45°
2026-05-04 17:39 -40.99019 -70.99217 34829 ft 559 kts 45°
2026-05-04 17:39 -40.94308 -70.91009 34795 ft 560 kts 45°
2026-05-04 17:40 -40.89619 -70.82823 34790 ft 558 kts 45°
2026-05-04 17:40 -40.84926 -70.74659 34800 ft 557 kts 45°
2026-05-04 17:41 -40.80233 -70.66515 34800 ft 556 kts 45°
2026-05-04 17:41 -40.75538 -70.58402 34798 ft 557 kts 45°
2026-05-04 17:42 -40.70860 -70.50343 34792 ft 558 kts 45°
2026-05-04 17:42 -40.66137 -70.42221 34792 ft 558 kts 45°
2026-05-04 17:43 -40.61423 -70.34081 34801 ft 560 kts 46°
2026-05-04 17:43 -40.56712 -70.25926 34797 ft 560 kts 45°
2026-05-04 17:44 -40.51974 -70.17807 34800 ft 559 kts 45°
2026-05-04 17:44 -40.47214 -70.09717 34806 ft 560 kts 45°
2026-05-04 17:45 -40.42447 -70.01637 34818 ft 560 kts 45°
2026-05-04 17:45 -40.37677 -69.93571 34808 ft 559 kts 45°
2026-05-04 17:46 -40.32905 -69.85514 34814 ft 558 kts 45°
2026-05-04 17:46 -40.28147 -69.77497 34801 ft 557 kts 45°
2026-05-04 17:47 -40.23389 -69.69510 34806 ft 556 kts 45°
2026-05-04 17:47 -40.18626 -69.61541 34808 ft 556 kts 45°
2026-05-04 17:48 -40.13853 -69.53569 34810 ft 556 kts 45°
2026-05-04 17:48 -40.09081 -69.45617 34807 ft 557 kts 45°
2026-05-04 17:49 -40.04288 -69.37649 34818 ft 558 kts 45°
2026-05-04 17:49 -39.99518 -69.29741 34815 ft 558 kts 45°
2026-05-04 17:50 -39.94708 -69.21785 34815 ft 558 kts 45°
2026-05-04 17:50 -39.89898 -69.13848 34810 ft 558 kts 45°
2026-05-04 17:51 -39.85085 -69.05932 34815 ft 557 kts 45°
2026-05-04 17:51 -39.80272 -68.98035 34811 ft 557 kts 45°
2026-05-04 17:52 -39.75457 -68.90151 34834 ft 557 kts 45°
2026-05-04 17:52 -39.70639 -68.82281 34835 ft 556 kts 44°
2026-05-04 17:53 -39.65817 -68.74428 34829 ft 556 kts 44°
2026-05-04 17:53 -39.60989 -68.66585 34831 ft 557 kts 44°
2026-05-04 17:54 -39.56265 -68.58604 34823 ft 562 kts 50°
2026-05-04 17:54 -39.52310 -68.49789 34831 ft 567 kts 56°
2026-05-04 17:55 -39.48464 -68.40871 34821 ft 567 kts 55°
2026-05-04 17:55 -39.44583 -68.32006 34823 ft 566 kts 55°
2026-05-04 17:56 -39.40666 -68.23181 34822 ft 566 kts 54°
2026-05-04 17:56 -39.36736 -68.14374 34823 ft 565 kts 54°
2026-05-04 17:57 -39.32804 -68.05583 34817 ft 566 kts 54°
2026-05-04 17:57 -39.28862 -67.96782 34815 ft 566 kts 54°
2026-05-04 17:58 -39.24908 -67.87977 34815 ft 567 kts 54°
2026-05-04 17:58 -39.20949 -67.79187 34811 ft 567 kts 54°
2026-05-04 17:59 -39.16983 -67.70407 34814 ft 567 kts 54°
2026-05-04 18:00 -39.11022 -67.57260 34809 ft 566 kts 54°
2026-05-04 18:00 -39.07705 -67.49989 34812 ft 566 kts 54°
2026-05-04 18:01 -39.03717 -67.41254 34817 ft 566 kts 54°
2026-05-04 18:01 -38.99083 -67.31122 34814 ft 566 kts 54°
2026-05-04 18:02 -38.93739 -67.19468 34817 ft 566 kts 54°
2026-05-04 18:02 -38.89734 -67.10767 34812 ft 566 kts 54°
2026-05-04 18:03 -38.85722 -67.02072 34813 ft 567 kts 54°
2026-05-04 18:03 -38.81695 -66.93370 34816 ft 567 kts 54°
2026-05-04 18:04 -38.77663 -66.84679 34813 ft 568 kts 54°
2026-05-04 18:05 -38.71596 -66.71652 34820 ft 568 kts 54°
2026-05-04 18:05 -38.67536 -66.62962 34823 ft 568 kts 54°
2026-05-04 18:06 -38.61444 -66.49966 34823 ft 568 kts 54°
2026-05-04 18:06 -38.57375 -66.41311 34827 ft 568 kts 54°
2026-05-04 18:07 -38.53329 -66.32732 34827 ft 567 kts 54°
2026-05-04 18:07 -38.49252 -66.24111 34835 ft 567 kts 54°
2026-05-04 18:08 -38.45172 -66.15508 34831 ft 566 kts 54°
2026-05-04 18:08 -38.41086 -66.06914 34830 ft 566 kts 54°
2026-05-04 18:09 -38.32906 -65.89779 34842 ft 566 kts 54°
2026-05-04 18:10 -38.28802 -65.81216 34841 ft 567 kts 54°
2026-05-04 18:10 -38.24688 -65.72652 34837 ft 567 kts 54°
2026-05-04 18:11 -38.20566 -65.64096 34843 ft 568 kts 54°
2026-05-04 18:11 -38.16438 -65.55547 34842 ft 567 kts 54°
2026-05-04 18:12 -38.12302 -65.47011 34839 ft 567 kts 54°
2026-05-04 18:12 -38.08166 -65.38489 34833 ft 567 kts 53°
2026-05-04 18:13 -38.04020 -65.29980 34839 ft 567 kts 53°
2026-05-04 18:14 -37.97786 -65.17221 34845 ft 568 kts 53°
2026-05-04 18:14 -37.93621 -65.08721 34841 ft 568 kts 53°
2026-05-04 18:15 -37.85268 -64.91737 34835 ft 568 kts 53°
2026-05-04 18:16 -37.81086 -64.83274 34853 ft 566 kts 53°
2026-05-04 18:16 -37.76911 -64.74834 34849 ft 566 kts 53°
2026-05-04 18:17 -37.70647 -64.62221 34842 ft 564 kts 53°
2026-05-04 18:18 -37.64379 -64.49658 34847 ft 563 kts 53°
2026-05-04 18:18 -37.60199 -64.41302 34853 ft 563 kts 53°
2026-05-04 18:19 -37.53950 -64.28847 34854 ft 563 kts 53°
2026-05-04 18:19 -37.49730 -64.20465 34843 ft 563 kts 53°
2026-05-04 18:20 -37.45534 -64.12151 34851 ft 562 kts 53°
2026-05-04 18:20 -37.41333 -64.03848 34848 ft 563 kts 53°
2026-05-04 18:21 -37.37153 -63.95606 34847 ft 563 kts 53°
2026-05-04 18:21 -37.32936 -63.87313 34862 ft 563 kts 53°
2026-05-04 18:22 -37.28715 -63.79033 34857 ft 563 kts 53°
2026-05-04 18:22 -37.24491 -63.70765 34853 ft 563 kts 53°
2026-05-04 18:23 -37.20258 -63.62500 34850 ft 562 kts 53°
2026-05-04 18:23 -37.16026 -63.54264 34850 ft 562 kts 53°
2026-05-04 18:24 -37.11785 -63.46026 34849 ft 562 kts 53°
2026-05-04 18:24 -37.07549 -63.37816 34849 ft 561 kts 53°
2026-05-04 18:25 -37.03306 -63.29613 34846 ft 561 kts 53°
2026-05-04 18:25 -36.99062 -63.21430 34846 ft 560 kts 53°
2026-05-04 18:26 -36.94818 -63.13269 34856 ft 560 kts 53°
2026-05-04 18:26 -36.90569 -63.05113 34852 ft 560 kts 53°
2026-05-04 18:27 -36.86319 -62.96974 34850 ft 559 kts 52°
2026-05-04 18:27 -36.82066 -62.88858 34847 ft 558 kts 52°
2026-05-04 18:28 -36.77813 -62.80757 34850 ft 558 kts 53°
2026-05-04 18:28 -36.73559 -62.72670 34854 ft 557 kts 52°
2026-05-04 18:29 -36.69304 -62.64602 34853 ft 557 kts 52°
2026-05-04 18:29 -36.65047 -62.56551 34854 ft 556 kts 52°
2026-05-04 18:30 -36.58653 -62.44494 34857 ft 556 kts 52°
2026-05-04 18:31 -36.54388 -62.36475 34854 ft 556 kts 52°
2026-05-04 18:31 -36.50142 -62.28511 34860 ft 556 kts 52°
2026-05-04 18:32 -36.45862 -62.20500 34858 ft 556 kts 53°
2026-05-04 18:32 -36.41582 -62.12509 34859 ft 557 kts 52°
2026-05-04 18:33 -36.37284 -62.04502 34864 ft 557 kts 53°
2026-05-04 18:33 -36.32985 -61.96513 34862 ft 557 kts 53°
2026-05-04 18:34 -36.28680 -61.88532 34861 ft 557 kts 53°
2026-05-04 18:34 -36.24369 -61.80560 34864 ft 557 kts 53°
2026-05-04 18:35 -36.20054 -61.72598 34862 ft 557 kts 53°
2026-05-04 18:35 -36.15734 -61.64647 34860 ft 557 kts 53°
2026-05-04 18:36 -36.11414 -61.56711 34864 ft 556 kts 53°
2026-05-04 18:36 -36.07084 -61.48777 34860 ft 556 kts 53°
2026-05-04 18:37 -36.02755 -61.40858 34861 ft 556 kts 53°
2026-05-04 18:37 -35.98420 -61.32949 34866 ft 556 kts 52°
2026-05-04 18:38 -35.94082 -61.25057 34865 ft 556 kts 52°
2026-05-04 18:38 -35.89735 -61.17164 34866 ft 556 kts 52°
2026-05-04 18:39 -35.85388 -61.09289 34879 ft 556 kts 52°
2026-05-04 18:39 -35.81029 -61.01411 34863 ft 556 kts 52°
2026-05-04 18:40 -35.76665 -60.93541 34874 ft 556 kts 52°
2026-05-04 18:40 -35.72296 -60.85678 34862 ft 557 kts 52°
2026-05-04 18:41 -35.67917 -60.77818 34875 ft 557 kts 52°
2026-05-04 18:41 -35.63562 -60.70016 34873 ft 557 kts 52°
2026-05-04 18:42 -35.59169 -60.62165 34874 ft 558 kts 52°
2026-05-04 18:42 -35.54771 -60.54321 34881 ft 558 kts 52°
2026-05-04 18:43 -35.50363 -60.46478 34875 ft 558 kts 52°
2026-05-04 18:43 -35.45950 -60.38644 34882 ft 558 kts 52°
2026-05-04 18:44 -35.41600 -60.30782 34844 ft 556 kts 57°
2026-05-04 18:44 -35.38425 -60.22265 33999 ft 543 kts 71°
2026-05-04 18:44 -35.37306 -60.17885 33166 ft 535 kts 77°
2026-05-04 18:45 -35.36556 -60.13456 32224 ft 529 kts 81°
2026-05-04 18:45 -35.35880 -60.09038 31376 ft 524 kts 81°
2026-05-04 18:45 -35.35210 -60.04689 30637 ft 516 kts 80°
2026-05-04 18:45 -35.34536 -60.00397 29943 ft 508 kts 80°
2026-05-04 18:46 -35.33862 -59.96190 29116 ft 500 kts 80°
2026-05-04 18:46 -35.33188 -59.92037 28255 ft 493 kts 79°
2026-05-04 18:46 -35.32521 -59.87948 27407 ft 488 kts 79°
2026-05-04 18:46 -35.31855 -59.83896 26565 ft 483 kts 79°
2026-05-04 18:47 -35.31193 -59.79883 25778 ft 478 kts 79°
2026-05-04 18:47 -35.30539 -59.75925 25032 ft 472 kts 79°
2026-05-04 18:47 -35.29891 -59.72004 24299 ft 467 kts 79°
2026-05-04 18:47 -35.29250 -59.68129 23587 ft 462 kts 79°
2026-05-04 18:48 -35.28615 -59.64296 22773 ft 457 kts 79°
2026-05-04 18:48 -35.27985 -59.60504 21994 ft 452 kts 79°
2026-05-04 18:48 -35.27572 -59.58021 21510 ft 448 kts 79°
2026-05-04 18:48 -35.26955 -59.54317 20787 ft 441 kts 79°
2026-05-04 18:49 -35.26347 -59.50674 20049 ft 434 kts 79°
2026-05-04 18:49 -35.25746 -59.47080 19271 ft 429 kts 78°
2026-05-04 18:49 -35.25149 -59.43520 18526 ft 424 kts 78°
2026-05-04 18:49 -35.24560 -59.40008 17732 ft 419 kts 78°
2026-05-04 18:50 -35.23978 -59.36549 16969 ft 412 kts 78°
2026-05-04 18:50 -35.23405 -59.33148 16261 ft 404 kts 78°
2026-05-04 18:50 -35.22841 -59.29812 15559 ft 397 kts 78°
2026-05-04 18:50 -35.22286 -59.26527 14855 ft 391 kts 78°
2026-05-04 18:51 -35.21738 -59.23296 14165 ft 385 kts 78°
2026-05-04 18:51 -35.21201 -59.20116 13471 ft 379 kts 78°
2026-05-04 18:51 -35.20669 -59.16984 12714 ft 373 kts 78°
2026-05-04 18:51 -35.20143 -59.13900 11994 ft 368 kts 78°
2026-05-04 18:52 -35.19620 -59.10837 11419 ft 369 kts 78°
2026-05-04 18:52 -35.19097 -59.07784 11146 ft 363 kts 78°
2026-05-04 18:52 -35.18585 -59.04788 10847 ft 358 kts 78°
2026-05-04 18:52 -35.18078 -59.01826 10632 ft 351 kts 78°
2026-05-04 18:53 -35.17587 -58.98961 10555 ft 336 kts 78°
2026-05-04 18:53 -35.17119 -58.96238 10348 ft 320 kts 78°
2026-05-04 18:53 -35.16666 -58.93612 10019 ft 315 kts 78°
2026-05-04 18:53 -35.16218 -58.91010 9767 ft 311 kts 78°
2026-05-04 18:54 -35.15775 -58.88442 9492 ft 308 kts 77°
2026-05-04 18:54 -35.15334 -58.85889 9200 ft 306 kts 77°
2026-05-04 18:54 -35.14895 -58.83355 8893 ft 305 kts 77°
2026-05-04 18:54 -35.14464 -58.80865 8591 ft 303 kts 76°
2026-05-04 18:55 -35.14029 -58.78362 8289 ft 301 kts 76°
2026-05-04 18:55 -35.13166 -58.73392 7689 ft 298 kts 76°
2026-05-04 18:55 -35.12737 -58.70923 7395 ft 297 kts 75°
2026-05-04 18:56 -35.12308 -58.68465 7128 ft 294 kts 75°
2026-05-04 18:56 -35.11884 -58.66030 6855 ft 293 kts 75°
2026-05-04 18:56 -35.11459 -58.63603 6584 ft 291 kts 74°
2026-05-04 18:56 -35.11038 -58.61197 6302 ft 289 kts 74°
2026-05-04 18:57 -35.10619 -58.58807 6039 ft 286 kts 74°
2026-05-04 18:57 -35.10206 -58.56446 5799 ft 282 kts 74°
2026-05-04 18:57 -35.09797 -58.54117 5548 ft 280 kts 74°
2026-05-04 18:57 -35.09389 -58.51802 5288 ft 278 kts 75°
2026-05-04 18:58 -35.08984 -58.49514 5046 ft 274 kts 75°
2026-05-04 18:58 -35.08502 -58.47336 4931 ft 255 kts 58°
2026-05-04 18:58 -35.07375 -58.45889 4884 ft 223 kts 21°
2026-05-04 18:58 -35.05928 -58.45467 4587 ft 210 kts 353°
2026-05-04 18:59 -35.04506 -58.45696 4302 ft 205 kts 345°
2026-05-04 18:59 -35.03115 -58.46044 4020 ft 203 kts 345°
2026-05-04 18:59 -35.01742 -58.46394 3811 ft 200 kts 345°
2026-05-04 18:59 -35.00381 -58.46719 3533 ft 199 kts 346°
2026-05-04 19:00 -34.99043 -58.47071 3273 ft 193 kts 342°
2026-05-04 19:00 -34.97775 -58.47486 3041 ft 189 kts 341°
2026-05-04 19:00 -34.96520 -58.47922 2809 ft 185 kts 341°
2026-05-04 19:00 -34.95310 -58.48341 2526 ft 176 kts 341°
2026-05-04 19:01 -34.94186 -58.48736 2324 ft 162 kts 341°
2026-05-04 19:01 -34.93099 -58.49117 2096 ft 160 kts 342°
2026-05-04 19:01 -34.92079 -58.49469 1907 ft 147 kts 343°
2026-05-04 19:01 -34.91105 -58.49812 1708 ft 145 kts 343°
2026-05-04 19:02 -34.90134 -58.50155 1502 ft 146 kts 343°
2026-05-04 19:02 -34.89154 -58.50496 1305 ft 147 kts 343°
2026-05-04 19:02 -34.88181 -58.50841 1126 ft 144 kts 342°
2026-05-04 19:02 -34.87215 -58.51190 924 ft 145 kts 343°
2026-05-04 19:03 -34.86254 -58.51541 744 ft 144 kts 345°
2026-05-04 19:03 -34.85290 -58.51839 503 ft 144 kts 344°
2026-05-04 19:03 -34.84345 -58.52169 321 ft 139 kts 342°
2026-05-04 19:03 -34.83418 -58.52498 153 ft 141 kts 343°
2026-05-04 19:04 -34.82472 -58.52825 91 ft 126 kts 345°
2026-05-04 19:04 -34.81787 -58.53062 87 ft 82 kts 344°
2026-05-04 19:04 -34.81428 -58.53187 88 ft 32 kts 344°
2026-05-04 19:04 -34.81273 -58.53242 92 ft 18 kts 343°
2026-05-04 19:05 -34.81189 -58.53297 92 ft 12 kts 306°
2026-05-04 19:05 -34.81168 -58.53404 83 ft 14 kts 275°
2026-05-04 19:05 -34.81163 -58.53462 82 ft 1 kts 275°
2026-05-04 19:05 -34.81161 -58.53509 81 ft 10 kts 271°
2026-05-04 19:06 -34.81185 -58.53574 83 ft 7 kts 214°
2026-05-04 19:06 -34.81236 -58.53588 85 ft 8 kts 181°
2026-05-04 19:06 -34.81291 -58.53587 85 ft 8 kts 180°
2026-05-04 19:06 -34.81348 -58.53591 85 ft 8 kts 186°
2026-05-04 19:07 -34.81404 -58.53603 84 ft 8 kts 194°
2026-05-04 19:07 -34.81455 -58.53623 84 ft 8 kts 200°
2026-05-04 19:07 -34.81506 -58.53649 82 ft 8 kts 205°
2026-05-04 19:07 -34.81549 -58.53680 85 ft 7 kts 215°
2026-05-04 19:08 -34.81586 -58.53719 84 ft 7 kts 223°
2026-05-04 19:08 -34.81624 -58.53761 84 ft 8 kts 223°
2026-05-04 19:08 -34.81662 -58.53805 84 ft 8 kts 223°
2026-05-04 19:08 -34.81698 -58.53850 85 ft 8 kts 231°
2026-05-04 19:09 -34.81726 -58.53904 84 ft 8 kts 239°
2026-05-04 19:09 -34.81753 -58.53959 84 ft 8 kts 239°
2026-05-04 19:09 -34.81778 -58.54015 82 ft 8 kts 246°
2026-05-04 19:09 -34.81791 -58.54077 84 ft 7 kts 263°
2026-05-04 19:10 -34.81789 -58.54133 83 ft 6 kts 277°
2026-05-04 19:10 -34.81783 -58.54184 83 ft 6 kts 278°
2026-05-04 19:10 -34.81778 -58.54234 85 ft 6 kts 277°
2026-05-04 19:10 -34.81772 -58.54285 82 ft 6 kts 277°
2026-05-04 19:11 -34.81767 -58.54336 84 ft 6 kts 277°
2026-05-04 19:11 -34.81751 -58.54376 85 ft 4 kts 326°
2026-05-04 19:11 -34.81721 -58.54377 85 ft 5 kts
2026-05-04 19:11 -34.81688 -58.54369 83 ft 5 kts 11°
2026-05-04 19:12 -34.81662 -58.54363 82 ft 2 kts 12°
2026-05-04 19:12 -34.81650 -58.54360 81 ft 0 kts 12°